Home   Weather   Mamoutzou   Past weeks

Flag for Mayotte Past Weather in Mamoutzou, Mayotte — Yesterday and Last 2 Weeks

Now
81 °F

Warm.


Feels Like: 85 °F
Forecast: 82 / 85 °F
Wind: 15 mph from Southwest

Location: Dzaoudzi / Pamanzi Mayotte

Current Time: May 30, 2017 at 1:36:19 am

Latest Report: May 30, 2017 at 1:00 am


Visibility: N/A

Pressure: 29.98 "Hg

Humidity: 74%

Dew Point: 72 °F

Location of MamoutzouLocation

Past Weather in Mamoutzou — Graph

°F

Mamoutzou Temperature Yesterday

Maximum temperature yesterday: 88 °F (at 9:30 am)
Minimum temperature yesterday: 79 °F (at 12:00 am)
Average temperature yesterday: 83 °F

High & Low Weather Summary for the Past Weeks

 TemperatureHumidityPressure
High88 °F (May 15, 9:30 am)94% (May 17, 4:30 am)30.07 "Hg (May 17, 4:30 am)
Low75 °F (May 15, 1:00 am)52% (May 23, 1:00 pm)29.89 "Hg (May 25, 2:30 pm)
Average82 °F74%29.98 "Hg
* Reported May 14 11:00 pm — May 29 11:30 pm, Mamoutzou. Weather by CustomWeather, © 2017

Note: Actual official high and low records may vary slightly from our data, if they occured in-between our weather recording intervals... More about our weather records

Advertising

Mamoutzou Weather History for the Previous 24 Hours

Scroll right to see more
 ConditionsComfort  
Time TempWeatherWind HumidityBarometerVisibility
11:30 pm
Mon, May 29
79 °FWarm.14 mph79%30.01 "HgN/A
11:00 pm79 °FWarm.13 mph79%30.01 "HgN/A
10:30 pm79 °FWarm.15 mph84%30.01 "HgN/A
10:00 pm81 °FWarm.16 mph79%30.01 "HgN/A
9:30 pm81 °FWarm.14 mph79%30.01 "HgN/A
9:00 pm81 °FWarm.15 mph79%30.01 "HgN/A
8:30 pm81 °FWarm.14 mph84%30.01 "HgN/A
8:00 pm81 °FWarm.15 mph84%30.01 "HgN/A
7:30 pm81 °FWarm.12 mph79%29.98 "HgN/A
7:00 pm81 °FWarm.12 mph79%29.98 "HgN/A
6:30 pm81 °FWarm.12 mph79%29.95 "HgN/A
6:00 pm81 °FPassing clouds.14 mph79%29.95 "HgN/A
5:30 pm82 °FPassing clouds.13 mph70%29.95 "HgN/A
5:00 pm84 °FPassing clouds.12 mph66%29.95 "HgN/A
4:30 pm84 °FPassing clouds.10 mph66%29.95 "HgN/A
4:00 pm86 °FPassing clouds.13 mph62%29.95 "HgN/A
3:30 pm86 °FPassing clouds.13 mph62%29.95 "HgN/A
3:00 pm86 °FPassing clouds.13 mph66%29.95 "HgN/A
2:30 pm86 °FPassing clouds.13 mph66%29.95 "HgN/A
2:00 pm86 °FPassing clouds.12 mph66%29.95 "HgN/A
1:30 pm88 °FPassing clouds.10 mph66%29.95 "HgN/A
1:00 pm88 °FPassing clouds.9 mph66%29.95 "HgN/A
12:30 pm86 °FPassing clouds.8 mph70%29.98 "HgN/A
12:00 pm86 °FPassing clouds.9 mph70%29.98 "HgN/A
11:30 am88 °FPassing clouds.8 mph66%29.98 "HgN/A
11:00 am86 °FPassing clouds.7 mph70%30.01 "HgN/A
10:30 am86 °FPassing clouds.8 mph70%30.01 "HgN/A
10:00 am86 °FPassing clouds.8 mph66%30.01 "HgN/A
9:30 am88 °FScattered clouds.8 mph66%30.04 "HgN/A
9:05 am86 °FBroken clouds.9 mph66%30.04 "HgN/A
8:30 am86 °FBroken clouds.10 mph70%30.01 "HgN/A
8:00 am86 °FBroken clouds.9 mph66%30.01 "HgN/A
7:30 am84 °FBroken clouds.10 mph70%30.01 "HgN/A
7:00 am82 °FPartly sunny.12 mph74%30.01 "HgN/A
6:30 am81 °FSunny.10 mph79%29.98 "Hg10 mi
6:00 am81 °FPassing clouds.9 mph79%29.98 "HgN/A
5:30 am81 °FPassing clouds.7 mph79%29.98 "HgN/A
5:00 am81 °FPassing clouds.10 mph79%29.95 "HgN/A
4:30 am81 °FWarm.9 mph79%29.95 "HgN/A
3:30 am81 °FWarm.7 mph79%29.95 "HgN/A
3:00 am79 °FWarm.5 mph84%29.95 "HgN/A
2:30 am79 °FWarm.6 mph84%29.95 "HgN/A
2:00 am79 °FWarm.9 mph84%29.95 "HgN/A
1:30 am79 °FWarm.9 mph84%29.95 "HgN/A
1:00 am79 °FWarm.10 mph84%29.98 "HgN/A
Weather by CustomWeather, © 2017

See weather overviewHow to use our weather pages